• In Russia
  • List of Countries
  • For 7 days
  • Water Temperature
  • Satellite Maps
  • Weather Map
  • Weather Widgets
  • user-avatar
    Login

    Hourly Weather Prutz

    Today, 11 December, Sunday

    Time Temperature Precipitation Wind Pressure Humidity
    00:00 -2°C° 0 mm 1 mps 633 mmHg 72%
    01:00 -2°C° 0 mm 1 mps 632 mmHg 70%
    02:00 -2°C° 0 mm 1 mps 632 mmHg 69%
    03:00 -2°C° 0 mm 1 mps 632 mmHg 67%
    04:00 -2°C° 0 mm 1 mps 632 mmHg 66%
    05:00 -2°C° 0 mm 1 mps 632 mmHg 65%
    06:00 -2°C° 0 mm 1 mps 632 mmHg 65%
    07:00 -2°C° 0 mm 1 mps 632 mmHg 64%
    08:00 -1°C° 0 mm 1 mps 633 mmHg 65%
    09:00 +1°C° 0 mm 1 mps 634 mmHg 67%
    10:00 +3°C° 0 mm 1 mps 635 mmHg 68%
    11:00 +3°C° 0 mm 1 mps 635 mmHg 70%
    12:00 +3°C° 0 mm 2 mps 635 mmHg 73%
    13:00 +4°C° 0 mm 2 mps 635 mmHg 75%
    14:00 +3°C° 0 mm 2 mps 634 mmHg 79%
    15:00 +2°C° 0 mm 1 mps 634 mmHg 83%
    16:00 +1°C° 0 mm 1 mps 633 mmHg 86%
    17:00 0°C° 0.1 mm 1 mps 633 mmHg 88%
    18:00 0°C° 0.1 mm 1 mps 633 mmHg 90%
    19:00 -1°C° 0.1 mm 1 mps 633 mmHg 91%
    20:00 -1°C° 0 mm 1 mps 633 mmHg 92%
    21:00 -1°C° 0 mm 1 mps 633 mmHg 93%
    22:00 -2°C° 0 mm 1 mps 633 mmHg 94%
    23:00 -2°C° 0 mm 1 mps 633 mmHg 95%

    Tomorrow, 12 December, Monday

    Time Temperature Precipitation Wind Pressure Humidity
    00:00 -2°C° 0 mm 1 mps 633 mmHg 95%
    01:00 -2°C° 0 mm 1 mps 633 mmHg 96%
    02:00 -1°C° 0.1 mm 1 mps 633 mmHg 96%
    03:00 -1°C° 0.1 mm 1 mps 633 mmHg 95%
    04:00 -1°C° 0.1 mm 1 mps 633 mmHg 95%
    05:00 -1°C° 0.1 mm 1 mps 634 mmHg 95%
    06:00 -2°C° 0.1 mm 1 mps 634 mmHg 95%
    07:00 -2°C° 0.1 mm 1 mps 634 mmHg 95%
    08:00 -1°C° 0 mm 1 mps 634 mmHg 93%
    09:00 -1°C° 0 mm 1 mps 635 mmHg 91%
    10:00 0°C° 0 mm 1 mps 635 mmHg 90%
    11:00 +1°C° 0 mm 1 mps 635 mmHg 87%
    12:00 +2°C° 0 mm 1 mps 635 mmHg 85%
    13:00 +2°C° 0 mm 1 mps 635 mmHg 83%
    14:00 +1°C° 0 mm 1 mps 635 mmHg 87%
    15:00 0°C° 0 mm 1 mps 635 mmHg 90%
    16:00 -1°C° 0 mm 1 mps 634 mmHg 94%
    17:00 -3°C° 0 mm 1 mps 634 mmHg 94%
    18:00 -6°C° 0 mm 1 mps 633 mmHg 95%
    19:00 -7°C° 0 mm 1 mps 633 mmHg 95%
    20:00 -8°C° 0 mm 1 mps 633 mmHg 94%
    21:00 -8°C° 0 mm 0 mps 633 mmHg 92%
    22:00 -9°C° 0 mm 0 mps 633 mmHg 91%
    23:00 -8°C° 0 mm 1 mps 633 mmHg 88%

    Day after tomorrow, 13 December, Tuesday

    Time Temperature Precipitation Wind Pressure Humidity
    00:00 -8°C° 0 mm 1 mps 633 mmHg 85%
    01:00 -7°C° 0 mm 1 mps 633 mmHg 82%
    02:00 -7°C° 0 mm 1 mps 633 mmHg 79%
    03:00 -7°C° 0 mm 1 mps 633 mmHg 77%
    04:00 -7°C° 0 mm 1 mps 633 mmHg 75%
    05:00 -7°C° 0 mm 1 mps 633 mmHg 73%
    06:00 -7°C° 0 mm 1 mps 633 mmHg 71%
    07:00 -7°C° 0 mm 1 mps 633 mmHg 69%
    08:00 -3°C° 0 mm 1 mps 634 mmHg 68%
    09:00 -1°C° 0 mm 1 mps 635 mmHg 67%
    10:00 +1°C° 0 mm 1 mps 636 mmHg 67%
    11:00 +1°C° 0 mm 0 mps 637 mmHg 68%
    12:00 +2°C° 0 mm 0 mps 637 mmHg 70%
    13:00 +3°C° 0 mm 0 mps 637 mmHg 72%
    14:00 +1°C° 0 mm 0 mps 636 mmHg 76%
    15:00 -1°C° 0 mm 0 mps 635 mmHg 81%
    16:00 -4°C° 0 mm 0 mps 634 mmHg 85%
    17:00 -4°C° 0 mm 0 mps 634 mmHg 85%
    18:00 -5°C° 0 mm 0 mps 633 mmHg 85%
    19:00 -5°C° 0 mm 0 mps 633 mmHg 85%
    20:00 -4°C° 0 mm 1 mps 633 mmHg 83%
    21:00 -4°C° 0 mm 1 mps 634 mmHg 82%
    22:00 -4°C° 0 mm 1 mps 634 mmHg 80%
    23:00 -4°C° 0 mm 1 mps 633 mmHg 80%

    14 December, Wednesday

    Time Temperature Precipitation Wind Pressure Humidity
    00:00 -6°C° 0 mm 1 mps 633 mmHg 79%
    01:00 -6°C° 0 mm 1 mps 633 mmHg 79%
    02:00 -6°C° 0 mm 1 mps 632 mmHg 78%
    03:00 -6°C° 0 mm 1 mps 632 mmHg 77%
    04:00 -6°C° 0 mm 1 mps 632 mmHg 76%
    05:00 -6°C° 0 mm 1 mps 632 mmHg 74%
    06:00 -6°C° 0 mm 1 mps 632 mmHg 73%
    07:00 -6°C° 0 mm 1 mps 632 mmHg 71%
    08:00 -3°C° 0 mm 1 mps 633 mmHg 69%
    09:00 -1°C° 0 mm 1 mps 634 mmHg 67%
    10:00 +1°C° 0 mm 1 mps 635 mmHg 66%
    11:00 +2°C° 0 mm 1 mps 635 mmHg 67%
    12:00 +2°C° 0 mm 0 mps 635 mmHg 69%
    13:00 +3°C° 0 mm 0 mps 635 mmHg 71%
    14:00 +1°C° 0 mm 0 mps 634 mmHg 74%
    15:00 0°C° 0 mm 1 mps 633 mmHg 76%
    16:00 -2°C° 0 mm 1 mps 632 mmHg 79%
    17:00 -2°C° 0 mm 1 mps 632 mmHg 81%
    18:00 -3°C° 0 mm 1 mps 632 mmHg 82%
    19:00 -4°C° 0 mm 1 mps 631 mmHg 83%
    20:00 -4°C° 0 mm 1 mps 631 mmHg 83%
    21:00 -4°C° 0 mm 1 mps 631 mmHg 84%
    22:00 -4°C° 0 mm 1 mps 632 mmHg 84%
    23:00 -4°C° 0 mm 1 mps 631 mmHg 85%

    15 December, Thursday

    Time Temperature Precipitation Wind Pressure Humidity
    00:00 -4°C° 0 mm 1 mps 631 mmHg 85%
    01:00 -4°C° 0 mm 1 mps 631 mmHg 86%
    02:00 -4°C° 0 mm 1 mps 631 mmHg 86%
    03:00 -4°C° 0 mm 1 mps 631 mmHg 86%
    04:00 -4°C° 0 mm 1 mps 631 mmHg 86%
    05:00 -4°C° 0 mm 1 mps 631 mmHg 87%
    06:00 -4°C° 0 mm 1 mps 631 mmHg 87%
    07:00 -4°C° 0 mm 1 mps 631 mmHg 87%
    08:00 -2°C° 0 mm 1 mps 632 mmHg 84%
    09:00 0°C° 0 mm 1 mps 633 mmHg 81%
    10:00 +1°C° 0 mm 1 mps 634 mmHg 78%
    11:00 +2°C° 0 mm 1 mps 634 mmHg 78%
    12:00 +3°C° 0 mm 1 mps 634 mmHg 78%
    13:00 +4°C° 0 mm 1 mps 634 mmHg 78%
    14:00 +2°C° 0 mm 1 mps 633 mmHg 83%
    15:00 +1°C° 0 mm 1 mps 633 mmHg 88%
    16:00 -1°C° 0 mm 1 mps 632 mmHg 92%
    17:00 -3°C° 0 mm 0 mps 632 mmHg 93%
    18:00 -4°C° 0 mm 0 mps 631 mmHg 94%
    19:00 -5°C° 0 mm 0 mps 631 mmHg 95%
    20:00 -6°C° 0 mm 0 mps 631 mmHg 94%
    21:00 -6°C° 0 mm 0 mps 631 mmHg 94%
    22:00 -6°C° 0 mm 0 mps 631 mmHg 93%
    23:00 -5°C° 0 mm 0 mps 631 mmHg 92%

    16 December, Friday

    Time Temperature Precipitation Wind Pressure Humidity
    00:00 -3°C° 0 mm 1 mps 632 mmHg 91%
    01:00 -3°C° 0 mm 1 mps 632 mmHg 91%
    02:00 -3°C° 0 mm 1 mps 632 mmHg 91%
    03:00 -3°C° 0 mm 1 mps 632 mmHg 92%
    04:00 -3°C° 0 mm 1 mps 631 mmHg 92%
    05:00 -3°C° 0 mm 1 mps 631 mmHg 92%
    06:00 -3°C° 0 mm 1 mps 631 mmHg 92%
    07:00 -3°C° 0 mm 1 mps 631 mmHg 92%
    08:00 -2°C° 0 mm 1 mps 632 mmHg 89%
    09:00 -1°C° 0 mm 1 mps 632 mmHg 86%
    10:00 0°C° 0 mm 1 mps 632 mmHg 83%
    11:00 +1°C° 0 mm 1 mps 632 mmHg 82%
    12:00 +2°C° 0 mm 1 mps 632 mmHg 80%
    13:00 +3°C° 0 mm 1 mps 632 mmHg 79%
    14:00 +2°C° 0 mm 1 mps 632 mmHg 83%
    15:00 0°C° 0 mm 1 mps 631 mmHg 88%
    16:00 -1°C° 0 mm 1 mps 631 mmHg 92%
    17:00 -1°C° 0 mm 1 mps 631 mmHg 92%
    18:00 -2°C° 0 mm 1 mps 631 mmHg 92%
    19:00 -2°C° 0 mm 1 mps 631 mmHg 92%
    20:00 -2°C° 0 mm 1 mps 631 mmHg 92%
    21:00 -2°C° 0 mm 1 mps 631 mmHg 91%
    22:00 -2°C° 0 mm 1 mps 631 mmHg 90%
    23:00 -2°C° 0 mm 1 mps 631 mmHg 90%
    Show more